FW5178 Weather Reports


time (UTC)temp
F
wind
direction
speed
knots
gust
knots
rain 1hr
in
rain 24hr
in
rain mn
in
humidity
%
barometer
mb
20260505194530 66 324 5.2 11.3 0.00 0.00 0.00 61 1015.9
20260505193030 66 323 7.8 16.5 0.00 0.00 0.00 61 1016.0
20260505191532 65 327 6.1 13.9 0.00 0.00 0.00 63 1016.0
20260505190146 65 342 6.1 13.0 0.00 0.00 0.00 63 1016.0
20260505184606 64 327 6.1 12.2 0.00 0.00 0.00 64 1016.1
20260505183030 64 340 6.1 14.8 0.00 0.00 0.00 65 1016.2
20260505181530 63 334 5.2 13.0 0.00 0.00 0.00 66 1016.3
20260505180031 63 332 6.1 15.6 0.00 0.00 0.00 67 1016.2
20260505174530 63 335 4.3 12.2 0.00 0.00 0.00 68 1016.3
20260505171533 62 330 5.2 13.0 0.00 0.00 0.00 70 1016.1
20260505170033 61 338 4.3 11.3 0.00 0.00 0.00 72 1016.1
20260505164530 61 336 6.1 15.6 0.00 0.00 0.00 73 1016.1
20260505163030 60 335 5.2 13.0 0.00 0.00 0.00 74 1016.0
20260505161530 59 338 5.2 12.2 0.00 0.00 0.00 75 1016.0
20260505153029 57 352 4.3 12.2 0.00 0.00 0.00 80 1015.8
20260505151531 56 355 4.3 9.6 0.00 0.00 0.00 83 1015.8
20260505124530 53 2 5.2 10.4 0.00 0.00 0.00 85 1014.6
20260505123144 54 360 5.2 10.4 0.00 0.00 0.00 85 1014.6
20260505121529 54 1 6.1 10.4 0.00 0.00 0.00 85 1014.5
20260505114528 54 7 5.2 8.7 0.00 0.00 0.00 85 1014.3
20260505113107 54 7 5.2 11.3 0.00 0.00 0.00 85 1014.3
20260505111531 54 7 5.2 9.6 0.00 0.00 0.00 85 1014.2
20260505100031 55 6 5.2 9.6 0.00 0.00 0.00 82 1013.8
20260505094526 56 11 4.3 8.7 0.00 0.00 0.00 81 1013.7
20260505091530 57 4 5.2 11.3 0.00 0.00 0.00 81 1013.5
20260505084533 57 7 4.3 8.7 0.00 0.00 0.00 81 1013.2
20260505083029 57 8 4.3 7.8 0.00 0.00 0.00 82 1013.2
20260505081533 58 5 3.5 6.1 0.00 0.00 0.00 81 1013.1
20260505080028 57 18 3.5 7.0 0.00 0.00 0.00 80 1013.0
20260505074606 58 21 2.6 4.3 0.00 0.00 0.00 79 1012.9
20260505071532 60 360 2.6 4.3 0.00 0.00 0.00 72 1012.7
20260505070032 62 228 0.0 4.3 0.00 0.00 0.00 69 1012.6
20260505064532 63 227 4.3 8.7 0.00 0.00 0.00 68 1012.5
20260505063028 63 228 4.3 7.8 0.00 0.00 0.00 67 1012.4
20260505061526 64 232 3.5 7.8 0.00 0.00 0.00 65 1012.4
20260505060030 64 223 5.2 10.4 0.00 0.00 0.00 64 1012.4
20260505054530 64 215 6.1 13.0 0.00 0.00 0.00 63 1012.4
20260505051534 65 221 5.2 10.4 0.00 0.00 0.00 61 1012.2
20260505040040 63 184 1.7 5.2 0.00 0.00 0.00 61 1011.3
20260505033104 66 231 0.0 3.5 0.00 0.00 0.00 57 1010.9
20260505023107 72 317 5.2 13.9 0.00 0.00 0.00 52 1010.2
20260505021531 73 315 7.0 15.6 0.00 0.00 0.00 52 1010.2
20260505020030 73 318 4.3 10.4 0.00 0.00 0.00 51 1010.2
20260505014532 74 319 6.1 13.0 0.00 0.00 0.00 50 1010.2
20260505013030 74 310 7.0 13.9 0.00 0.00 0.00 50 1010.1
20260505010033 75 322 6.1 13.0 0.00 0.00 0.00 49 1010.1
20260505004646 76 331 6.1 15.6 0.00 0.00 0.00 49 1010.1
20260505001531 76 323 6.1 13.9 0.00 0.00 0.00 48 1010.1
20260505000107 77 308 7.0 17.4 0.00 0.00 0.00 47 1010.0
20260504234528 77 321 6.1 13.9 0.00 0.00 0.00 47 1010.0
20260504233106 78 315 5.2 12.2 0.00 0.00 0.00 46 1010.0
20260504231530 78 355 3.5 8.7 0.00 0.00 0.00 47 1010.0
20260504230031 78 351 3.5 7.8 0.00 0.00 0.00 47 1010.2
20260504224531 78 339 4.3 12.2 0.00 0.00 0.00 47 1010.3
20260504223030 78 348 3.5 8.7 0.00 0.00 0.00 46 1010.5
20260504221531 78 340 2.6 9.6 0.00 0.00 0.00 47 1010.6
20260504220104 78 6 5.2 10.4 0.00 0.00 0.00 47 1010.6
20260504214535 77 13 5.2 9.6 0.00 0.00 0.00 47 1010.8
20260504213030 77 21 5.2 10.4 0.00 0.00 0.00 47 1010.9
20260504211532 77 346 4.3 10.4 0.00 0.00 0.00 46 1011.1
20260504210026 76 5 5.2 10.4 0.00 0.00 0.00 47 1011.3
20260504204540 76 338 5.2 12.2 0.00 0.00 0.00 47 1011.4
20260504203032 76 356 5.2 10.4 0.00 0.00 0.00 47 1011.5
20260504201529 75 10 6.1 12.2 0.00 0.00 0.00 48 1011.6
20260504200105 75 5 7.0 13.0 0.00 0.00 0.00 49 1011.8